Home   Weather   Abidjan   Past weeks

Flag for Cote d'Ivoire (Ivory Coast) Past Weather in Abidjan, Cote d'Ivoire (Ivory Coast) — Yesterday and Last 2 Weeks

Now
86 °F

Passing clouds.


Feels Like: 97 °F
Forecast: N/A
Wind: 10 mph from Southwest

Location: Abidjan Airport

Current Time: Feb 20, 2017 at 6:08:14 pm

Latest Report: Feb 20, 2017 at 5:30 pm


Visibility: 5 mi

Pressure: 29.80 "Hg

Humidity: 75%

Dew Point: 77 °F

Location of AbidjanLocation

Past Weather in Abidjan — Graph

°F

Abidjan Temperature Yesterday

Maximum temperature yesterday: 90 °F (at 1:00 pm)
Minimum temperature yesterday: 79 °F (at 6:21 am)
Average temperature yesterday: 84 °F

High & Low Weather Summary for the Past Weeks

 TemperatureHumidityPressure
High90 °F (Feb 6, 1:00 pm)100% (Feb 6, 2:30 am)29.95 "Hg (Feb 6, 2:30 am)
Low72 °F (Feb 13, 7:16 pm)59% (Feb 14, 12:00 pm)29.71 "Hg (Feb 7, 3:30 pm)
Average83 °F84%29.82 "Hg
* Reported Feb 5 5:00 pm — Feb 20 5:00 pm, Abidjan, Weather by CustomWeather, © 2017

Note: Actual official high and low records may vary slightly from our data, if they occured in-between our weather recording intervals... More about our weather records

Advertising

Abidjan Weather History for the Previous 24 Hours

Scroll right to see more
 ConditionsComfort  
Time TempWeatherWind HumidityBarometerVisibility
5:00 pm
Mon, Feb 20
86 °FClear.10 mph79%29.80 "Hg5 mi
4:30 pm88 °FPassing clouds.12 mph70%29.80 "Hg4 mi
4:00 pm88 °FPassing clouds.12 mph70%29.80 "Hg4 mi
3:30 pm88 °FPassing clouds.12 mph70%29.80 "Hg4 mi
3:00 pm88 °FPassing clouds.12 mph70%29.83 "Hg4 mi
2:30 pm90 °FPassing clouds.12 mph67%29.83 "Hg4 mi
2:00 pm90 °FPassing clouds.10 mph67%29.83 "Hg4 mi
1:30 pm88 °FPassing clouds.9 mph75%29.86 "Hg5 mi
1:00 pm90 °FPassing clouds.9 mph67%29.86 "Hg5 mi
12:30 pm88 °FScattered clouds.9 mph70%29.89 "Hg5 mi
12:00 pm88 °FScattered clouds.8 mph70%29.92 "Hg5 mi
11:30 am88 °FScattered clouds.7 mph70%29.92 "Hg5 mi
11:00 am88 °FScattered clouds.7 mph66%29.92 "Hg5 mi
10:30 am86 °FScattered clouds.6 mph79%29.92 "Hg5 mi
10:00 am84 °FScattered clouds.2 mph79%29.92 "Hg5 mi
9:30 am84 °FScattered clouds.2 mph84%29.92 "Hg5 mi
9:00 am82 °FScattered clouds.2 mph84%29.92 "Hg5 mi
8:30 am81 °FBroken clouds.2 mph89%29.92 "Hg5 mi
8:00 am79 °FScattered clouds.1 mph94%29.89 "Hg5 mi
7:30 am79 °FScattered clouds.2 mph94%29.89 "Hg5 mi
7:23 am79 °FScattered clouds.2 mph94%29.89 "Hg5 mi
7:00 am79 °FPartly sunny.6 mph89%29.89 "Hg5 mi
6:30 am79 °FThunderstorms. Broken clouds.12 mph84%29.86 "Hg3 mi
6:16 am77 °FStrong thunderstorms. Partly cloudy.15 mph89%29.86 "Hg1 mi
6:07 am79 °FRain. Partly cloudy.5 mph94%29.86 "Hg2 mi
5:30 am79 °FPassing clouds.2 mph94%29.86 "Hg5 mi
5:00 am81 °FPassing clouds.1 mph89%29.86 "Hg5 mi
4:30 am81 °FPassing clouds.2 mph94%29.83 "Hg5 mi
4:00 am81 °FPassing clouds.5 mph94%29.83 "Hg5 mi
3:30 am81 °FPassing clouds.6 mph94%29.83 "Hg5 mi
3:00 am81 °FPassing clouds.6 mph94%29.83 "Hg5 mi
2:30 am81 °FPassing clouds.7 mph94%29.86 "Hg5 mi
2:01 am82 °FPassing clouds.7 mph89%29.86 "Hg5 mi
2:00 am82 °FPassing clouds.7 mph89%29.86 "Hg5 mi
1:30 am82 °FPassing clouds.7 mph89%29.86 "HgN/A
1:00 am82 °FPassing clouds.7 mph89%29.86 "HgN/A
12:30 am82 °FPassing clouds.7 mph89%29.89 "HgN/A
11:30 pm
Sun, Feb 19
82 °FPassing clouds.7 mph89%29.89 "HgN/A
11:00 pm82 °FPassing clouds.8 mph89%29.89 "HgN/A
10:30 pm82 °FPassing clouds.7 mph89%29.89 "HgN/A
10:00 pm82 °FPassing clouds.8 mph89%29.89 "HgN/A
9:30 pm82 °FPassing clouds.8 mph89%29.89 "HgN/A
9:00 pm82 °FPassing clouds.9 mph89%29.89 "HgN/A
8:30 pm82 °FPassing clouds.8 mph84%29.86 "HgN/A
8:00 pm84 °FPassing clouds.9 mph79%29.86 "HgN/A
7:30 pm84 °FPassing clouds.9 mph84%29.83 "Hg6 mi
7:00 pm84 °FPassing clouds.10 mph79%29.83 "Hg6 mi
6:30 pm86 °FPassing clouds.9 mph75%29.83 "Hg6 mi
6:00 pm86 °FPassing clouds.9 mph79%29.80 "Hg6 mi
Weather by CustomWeather, © 2017

See weather overviewHow to use our weather pages